1998-067PK (43598 NORAD) Tracking and Keplerian Element Data

This shows tracking and keplerian element data for the satellite.

Feedback or suggestion? Click here.




ElementValue
Catalog43598
Name1998-067PK
Epoch Orbit4389
Epoch Day144.33704053
Epoch Year2019
RAAN110.6992
Inclination51.6366
Eccentricity0.000495
Argument of Perigee37.3293
Mean Anonmoly322.8044
Mean Motion15.61815718
Decay Rate0.0001206
L11 43598U 98067PK 19144.33704053 .00012060 00000-0 14217-3 0 9990
L22 43598 51.6366 110.6992 0004950 37.3293 322.8044 15.61815718 43891

Live tracking and technical data element details for 1998-067PK (NORAD 43598). 1998-067PK can be tracked NOW for your location showing map with azimuth and elevation plus other details from your city location.

Track the satellite on the map from your city or location and see movement details for azimuth, elevation, latitude, longitude, range, height, and movement on the map or in text.







IsCatalogInMostPopularTable: catalog: 43598, numindb: 146
Update: records affected: 1



GetName: 43598 1998-067PK

Hit Count: updated at: Fri, 24 May 2019 20:54:43 GMT